Location: Bad Salzschlirf
(50.3750°N, 9.3000°E)
Time: 17:50:40
(UTC+02:00)

ISS - Pass Details

Date: 25 May 2020
Orbit: 417 x 420 km, 51.6° (Epoch: 26 May)

Event Time Altitude Azimuth Distance (km) Brightness Sun altitude
Rises 00:43:25 0° 286° (WNW) 2,368 0.4 -18.2°
Reaches altitude 10° 00:45:39 10° 276° (W) 1,502 -0.8 -18.2°
Enters shadow 00:47:37 25° 247° (WSW) 895 -2.3 -18.3°
